D1900 Weather Reports


time (UTC)temp
C
wind
direction
speed
KPH
gust
KPH
rain 1hr
cm
rain 24hr
cm
rain mn
cm
humidity
%
barometer
mb
20260502152209 12 293 1.6 6.4 0.00 0.10 0.18 74 1000.1
20260502151434 12 257 1.6 6.4 0.00 0.10 0.18 75 1000.2
20260502150933 11 135 1.6 6.4 0.00 0.10 0.18 75 1000.2
20260502150428 11 292 3.2 9.7 0.00 0.10 0.18 76 1000.3
20260502130410 10 25 3.2 8.0 0.00 0.10 0.18 84 1000.2
20260502123641 9 20 1.6 4.8 0.00 0.10 0.18 95 1000.5
20260502122911 8 0 1.6 3.2 0.00 0.10 0.18 95 1000.6
20260502122411 8 89 0.0 3.2 0.00 0.10 0.18 95 1000.8
20260502121911 8 99 1.6 3.2 0.03 0.10 0.18 95 1000.8
20260502121411 8 0 1.6 3.2 0.08 0.10 0.18 95 1000.8
20260502120911 8 102 1.6 3.2 0.08 0.10 0.18 96 1000.8
20260502120411 8 0 0.0 3.2 0.10 0.10 0.18 96 1000.9
20260502115857 8 109 0.0 3.2 0.10 0.10 0.18 96 1000.9
20260502115358 8 119 0.0 3.2 0.10 0.10 0.18 95 1000.9
20260502114857 8 0 1.6 4.8 0.10 0.10 0.18 95 1000.8
20260502114614 8 59 3.2 6.4 0.10 0.10 0.18 95 1000.7
20260502114112 8 73 3.2 6.4 0.10 0.10 0.18 95 1000.6
20260502113343 8 129 1.6 4.8 0.10 0.10 0.18 95 1000.9
20260502112843 8 138 4.8 9.7 0.10 0.10 0.18 95 1001.1
20260502112333 8 34 4.8 9.7 0.10 0.10 0.18 94 1001.0
20260502111833 8 12 3.2 6.4 0.08 0.08 0.15 94 1000.9
20260502111333 8 20 1.6 4.8 0.03 0.03 0.13 95 1001.1
20260502110833 8 286 0.0 4.8 0.03 0.03 0.10 94 1001.3
20260502110334 8 0 0.0 1.6 0.00 0.00 0.10 94 1001.2
20260502105833 8 0 0.0 3.2 0.00 0.00 0.10 95 1001.0
20260502105604 8 0 1.6 3.2 0.00 0.00 0.10 95 1001.0
20260502104831 8 238 1.6 6.4 0.00 0.00 0.10 94 1000.6
20260502104601 8 58 3.2 6.4 0.00 0.00 0.10 94 1000.2
20260502104058 8 31 4.8 8.0 0.00 0.00 0.10 94 1000.2
20260502103329 8 45 6.4 9.7 0.00 0.00 0.10 94 1000.0
20260502103059 8 11 3.2 9.7 0.00 0.00 0.10 93 1000.1
20260502102330 8 351 0.0 3.2 0.00 0.00 0.10 92 1000.3
20260502102058 8 0 0.0 3.2 0.00 0.00 0.10 92 1000.3
20260502101327 8 0 0.0 3.2 0.00 0.00 0.10 92 1000.3
20260502100825 8 44 0.0 3.2 0.00 0.00 0.10 92 1000.3
20260502100328 8 0 0.0 0.0 0.00 0.00 0.10 92 1000.4
20260502091354 8 0 0.0 3.2 0.00 0.00 0.00 87 1000.0
20260502090854 8 0 0.0 3.2 0.00 0.00 0.00 87 999.9
20260502090354 8 0 0.0 3.2 0.00 0.00 0.00 87 999.8
20260502071344 10 71 1.6 4.8 0.00 0.00 0.00 79 999.9
20260502070844 10 98 1.6 6.4 0.00 0.00 0.00 78 1000.0
20260502070343 10 0 1.6 6.4 0.00 0.00 0.00 77 1000.2
20260502065843 10 0 0.0 3.2 0.00 0.00 0.00 77 1000.1
20260502065341 10 109 0.0 3.2 0.00 0.00 0.00 77 999.9
20260502064840 10 0 1.6 3.2 0.00 0.00 0.00 77 999.9
20260502064338 10 95 1.6 3.2 0.00 0.00 0.00 77 1000.0
20260502063839 10 198 1.6 3.2 0.00 0.00 0.00 76 1000.1
20260502063338 10 247 0.0 3.2 0.00 0.00 0.00 76 1000.0
20260502062839 10 0 1.6 3.2 0.00 0.00 0.00 76 1000.0
20260502062334 10 0 1.6 3.2 0.00 0.00 0.00 77 1000.0
20260502062106 10 188 0.0 3.2 0.00 0.00 0.00 77 1000.2
20260502061954 10 311 0.0 3.2 0.00 0.00 0.00 76 1000.2
20260502060836 10 191 0.0 3.2 0.00 0.00 0.00 77 1000.1
20260502060336 10 0 0.0 3.2 0.00 0.00 0.00 77 1000.1
20260502060107 10 265 0.0 3.2 0.00 0.00 0.00 75 1000.1
20260502055336 10 0 0.0 3.2 0.00 0.00 0.00 75 1000.1
20260502054832 10 346 0.0 3.2 0.00 0.00 0.00 74 1000.0
20260502054334 10 0 0.0 3.2 0.00 0.00 0.00 75 1000.0
20260502053832 10 0 0.0 3.2 0.00 0.00 0.00 75 1000.0
20260502053605 10 88 0.0 3.2 0.00 0.00 0.00 74 1000.1
20260502052832 10 0 0.0 3.2 0.00 0.00 0.00 74 1000.2
20260502052333 10 0 0.0 3.2 0.00 0.00 0.00 74 1000.2
20260502052102 10 308 0.0 3.2 0.00 0.00 0.00 74 1000.2
20260502051332 10 0 1.6 4.8 0.00 0.00 0.00 74 1000.1
20260502050831 10 152 1.6 4.8 0.00 0.00 0.00 73 1000.2
20260502050332 10 149 1.6 3.2 0.00 0.00 0.00 74 1000.3
20260502045842 10 0 1.6 6.4 0.00 0.00 0.00 73 1000.2
20260502045830 10 306 1.6 3.2 0.00 0.00 0.00 74 1000.3
20260502045332 10 0 1.6 6.4 0.00 0.00 0.00 74 1000.2
20260502044332 10 133 1.6 4.8 0.00 0.00 0.00 73 1000.3
20260502043832 10 301 1.6 4.8 0.00 0.00 0.00 74 1000.3
20260502043333 10 287 1.6 4.8 0.00 0.00 0.00 73 1000.2
20260502042831 10 178 1.6 4.8 0.00 0.00 0.00 74 1000.2
20260502042333 10 137 1.6 4.8 0.00 0.00 0.00 74 1000.2
20260502041832 10 146 1.6 4.8 0.00 0.00 0.00 73 1000.2
20260502041333 10 116 1.6 3.2 0.00 0.00 0.00 74 1000.2
20260502040831 10 0 1.6 3.2 0.00 0.00 0.00 73 1000.2
20260502040334 10 150 1.6 3.2 0.00 0.00 0.00 73 1000.2
20260502035538 10 131 1.6 4.8 0.00 0.00 0.00 73 1000.2
20260502035038 10 145 1.6 4.8 0.00 0.00 0.00 73 1000.3
20260502034539 10 128 1.6 4.8 0.00 0.00 0.00 73 1000.2
20260502034034 10 308 1.6 4.8 0.00 0.00 0.00 73 1000.3
20260502033535 10 198 1.6 4.8 0.00 0.00 0.00 73 1000.4
20260502033032 10 150 1.6 4.8 0.00 0.00 0.00 72 1000.4
20260502032533 10 296 1.6 4.8 0.00 0.00 0.00 73 1000.3
20260502032033 10 207 1.6 4.8 0.00 0.00 0.00 73 1000.4
20260502031533 10 207 1.6 4.8 0.00 0.00 0.00 73 1000.4
20260502031033 10 182 1.6 4.8 0.00 0.00 0.00 72 1000.4
20260502030533 10 141 1.6 4.8 0.00 0.00 0.00 72 1000.4
20260502030040 11 185 1.6 4.8 0.00 0.00 0.00 72 1000.4
20260502030033 10 147 1.6 4.8 0.00 0.00 0.00 72 1000.4
20260502025306 11 274 1.6 6.4 0.00 0.00 0.00 71 1000.4
20260502024534 11 132 1.6 6.4 0.00 0.00 0.00 70 1000.4
20260502024304 11 168 1.6 4.8 0.00 0.00 0.00 69 1000.3
20260502023534 11 180 1.6 6.4 0.00 0.00 0.00 68 1000.3
20260502023034 11 131 3.2 6.4 0.00 0.00 0.00 67 1000.3
20260502022534 11 181 3.2 6.4 0.00 0.00 0.00 67 1000.3
20260502022306 11 149 3.2 6.4 0.00 0.00 0.00 66 1000.3
20260502021534 11 180 3.2 8.0 0.00 0.00 0.00 65 1000.3
20260502021034 12 165 3.2 8.0 0.00 0.00 0.00 65 1000.3
20260502020534 12 209 3.2 8.0 0.00 0.00 0.00 65 1000.4
20260502020306 12 318 4.8 9.7 0.00 0.00 0.00 64 1000.4
20260502015534 12 172 4.8 9.7 0.00 0.00 0.00 63 1000.3
20260502015031 12 148 4.8 9.7 0.00 0.00 0.00 62 1000.2
20260502014532 12 269 3.2 8.0 0.00 0.00 0.00 62 1000.2
20260502014527 12 227 3.2 8.0 0.00 0.00 0.00 60 1000.1
20260502013525 12 162 3.2 8.0 0.00 0.00 0.00 59 1000.1
20260502013024 12 201 3.2 6.4 0.00 0.00 0.00 58 1000.0
20260502012532 12 212 3.2 6.4 0.00 0.00 0.00 55 1000.0
20260502012525 12 205 3.2 6.4 0.00 0.00 0.00 57 1000.0
20260502011525 12 307 3.2 8.0 0.00 0.00 0.00 54 999.9
20260502011255 13 0 3.2 8.0 0.00 0.00 0.00 52 999.8
20260502010524 13 229 3.2 8.0 0.00 0.00 0.00 51 999.7
20260502010025 13 164 3.2 11.3 0.00 0.00 0.00 50 999.6
20260502005757 13 147 3.2 11.3 0.00 0.00 0.00 48 999.6
20260502005026 13 158 1.6 4.8 0.00 0.00 0.00 49 999.5
20260502004524 13 209 1.6 6.4 0.00 0.00 0.00 49 999.4
20260502004024 13 208 3.2 6.4 0.00 0.00 0.00 48 999.4
20260502003531 13 139 1.6 4.8 0.00 0.00 0.00 51 999.3
20260502003524 13 212 1.6 6.4 0.00 0.00 0.00 49 999.3
20260502002750 12 215 3.2 9.7 0.00 0.00 0.00 49 999.2
20260502002019 12 0 3.2 9.7 0.00 0.00 0.00 57 999.2
20260502001520 13 215 1.6 6.4 0.00 0.00 0.00 44 999.0
20260502001020 13 0 1.6 3.2 0.00 0.00 0.00 43 998.8
20260502000520 13 31 1.6 3.2 0.00 0.00 0.00 46 998.7
20260502000020 13 345 0.0 3.2 0.00 0.00 0.00 43 998.7
20260501235520 13 30 0.0 3.2 0.00 0.00 0.00 44 998.7
20260501235020 13 0 0.0 1.6 0.00 0.00 0.00 41 998.6
20260501234520 14 0 0.0 3.2 0.00 0.00 0.00 40 998.5
20260501234019 14 15 0.0 3.2 0.00 0.00 0.00 45 998.5
20260501233520 15 0 0.0 4.8 0.00 0.00 0.00 42 998.4
20260501233020 15 0 0.0 4.8 0.00 0.00 0.00 38 998.3
20260501232519 15 203 1.6 4.8 0.00 0.00 0.00 38 998.3
20260501232018 16 0 1.6 4.8 0.00 0.00 0.00 36 998.3
20260501231519 16 0 0.0 4.8 0.00 0.00 0.00 36 998.2
20260501231019 16 0 1.6 6.4 0.00 0.00 0.00 36 998.3
20260501230519 16 277 1.6 6.4 0.00 0.00 0.00 40 998.2
20260501230019 17 60 0.0 3.2 0.00 0.00 0.00 36 998.2
20260501225519 17 0 0.0 3.2 0.00 0.00 0.00 34 998.1
20260501225016 17 202 0.0 3.2 0.00 0.00 0.00 37 998.0
20260501224513 17 222 0.0 3.2 0.00 0.00 0.00 34 997.9
20260501224013 16 0 1.6 9.7 0.00 0.00 0.00 35 997.9
20260501223744 16 0 3.2 9.7 0.00 0.00 0.00 36 997.9
20260501223010 16 315 1.6 9.7 0.00 0.00 0.00 35 997.9
20260501222748 16 0 3.2 8.0 0.00 0.00 0.00 36 997.9
20260501222509 16 347 1.6 6.4 0.00 0.00 0.00 35 997.9
20260501221510 16 315 3.2 9.7 0.00 0.00 0.00 36 997.9
20260501221010 16 271 4.8 12.9 0.00 0.00 0.00 36 997.9
20260501220517 16 1 4.8 12.9 0.00 0.00 0.00 37 998.0
20260501220511 16 316 3.2 12.9 0.00 0.00 0.00 34 997.9
20260501215510 16 27 4.8 12.9 0.00 0.00 0.00 34 998.0
20260501215009 16 295 3.2 8.0 0.00 0.00 0.00 35 998.1
20260501214504 16 155 3.2 8.0 0.00 0.00 0.00 35 998.0
20260501214004 16 291 3.2 6.4 0.00 0.00 0.00 34 998.0
20260501213504 16 287 3.2 9.7 0.00 0.00 0.00 39 998.0
20260501213004 16 300 4.8 14.5 0.00 0.00 0.00 35 998.0
20260501212505 16 325 4.8 14.5 0.00 0.00 0.00 40 998.0
20260501212005 16 47 4.8 14.5 0.00 0.00 0.00 36 997.9
20260501211505 16 317 3.2 9.7 0.00 0.00 0.00 34 997.9
20260501211005 16 14 3.2 8.0 0.00 0.00 0.00 38 997.9
20260501210505 16 48 3.2 9.7 0.00 0.00 0.00 36 997.9
20260501210005 16 223 6.4 14.5 0.00 0.00 0.00 35 997.9
20260501205505 16 17 8.0 17.7 0.00 0.00 0.00 37 997.9
20260501205005 16 0 9.7 20.9 0.00 0.00 0.00 34 997.8
20260501204735 16 327 8.0 20.9 0.00 0.00 0.00 36 997.9
20260501204234 16 319 4.8 14.5 0.00 0.00 0.00 36 997.9
20260501203504 16 283 4.8 14.5 0.00 0.00 0.00 35 997.9
20260501203004 16 305 3.2 11.3 0.00 0.00 0.00 36 997.9
20260501202502 15 331 3.2 11.3 0.00 0.00 0.00 35 997.9
20260501202003 16 321 4.8 12.9 0.00 0.00 0.00 36 997.8
20260501201503 15 317 6.4 14.5 0.00 0.00 0.00 35 997.8
20260501201003 15 347 8.0 17.7 0.00 0.00 0.00 38 997.9
20260501200503 15 356 9.7 20.9 0.00 0.00 0.00 36 998.0
20260501200003 15 317 6.4 20.9 0.00 0.00 0.00 37 997.9
20260501195500 15 321 6.4 16.1 0.00 0.00 0.00 35 997.8
20260501195000 15 10 8.0 19.3 0.00 0.00 0.00 38 997.8
20260501194459 15 273 8.0 19.3 0.00 0.00 0.00 38 997.8
20260501193958 15 268 9.7 19.3 0.00 0.00 0.00 37 997.9
20260501193459 15 2 8.0 19.3 0.00 0.00 0.00 38 997.9
20260501192959 15 322 6.4 19.3 0.00 0.00 0.00 35 998.0
20260501192730 15 339 4.8 19.3 0.00 0.00 0.00 36 998.2
20260501191958 15 297 6.4 22.5 0.00 0.00 0.00 39 998.2
20260501191731 15 349 8.0 22.5 0.00 0.00 0.00 41 998.1
20260501190959 15 337 11.3 22.5 0.00 0.00 0.00 36 998.3
20260501190730 15 311 9.7 17.7 0.00 0.00 0.00 37 998.4
20260501185959 15 338 6.4 16.1 0.00 0.00 0.00 36 998.4
20260501185730 15 169 6.4 16.1 0.00 0.00 0.00 37 998.5
20260501184956 15 355 4.8 14.5 0.00 0.00 0.00 39 998.5
20260501184455 15 231 6.4 16.1 0.00 0.00 0.00 36 998.5
20260501183956 15 319 6.4 16.1 0.00 0.00 0.00 37 998.5
20260501183456 15 296 6.4 14.5 0.00 0.00 0.00 38 998.5
20260501183226 15 305 6.4 19.3 0.00 0.00 0.00 36 998.5
20260501182727 15 10 6.4 19.3 0.00 0.00 0.00 37 998.5
20260501181957 15 319 6.4 17.7 0.00 0.00 0.00 39 998.7
20260501181455 15 286 6.4 17.7 0.00 0.00 0.00 37 998.6
20260501180956 15 347 8.0 17.7 0.00 0.00 0.00 37 998.7
20260501180727 14 342 9.7 17.7 0.00 0.00 0.00 38 998.7
20260501175956 14 339 9.7 19.3 0.00 0.00 0.00 38 998.6
20260501175455 14 304 11.3 20.9 0.00 0.00 0.00 36 998.6
20260501174954 14 323 11.3 20.9 0.00 0.00 0.00 38 998.7
20260501174455 14 334 9.7 17.7 0.00 0.00 0.00 38 998.7
20260501173954 14 301 6.4 17.7 0.00 0.00 0.00 40 998.7
20260501173455 14 149 6.4 19.3 0.00 0.00 0.00 38 998.7
20260501172954 14 317 8.0 19.3 0.00 0.00 0.00 39 998.7
20260501172455 14 291 6.4 14.5 0.00 0.00 0.00 40 998.8
20260501171955 14 300 4.8 14.5 0.00 0.00 0.00 40 998.9
20260501171455 13 243 6.4 19.3 0.00 0.00 0.00 41 998.9
20260501170956 13 322 8.0 19.3 0.00 0.00 0.00 44 998.9
20260501170455 13 32 8.0 17.7 0.00 0.00 0.00 43 998.9
20260501170226 13 345 9.7 20.9 0.00 0.00 0.00 43 999.0
20260501165456 13 2 8.0 20.9 0.00 0.00 0.00 45 999.0
20260501164952 13 231 6.4 14.5 0.00 0.00 0.00 45 999.0
20260501164450 13 320 8.0 22.5 0.00 0.00 0.00 48 999.0
20260501163949 13 0 9.7 22.5 0.00 0.00 0.00 44 999.1
20260501163446 13 11 6.4 19.3 0.00 0.00 0.00 49 999.2
20260501162946 13 1 6.4 17.7 0.00 0.00 0.00 45 999.2
20260501162445 13 38 8.0 17.7 0.00 0.00 0.00 45 999.2
20260501161945 13 317 6.4 17.7 0.00 0.00 0.00 48 999.3
20260501161717 13 313 8.0 17.7 0.00 0.00 0.00 46 999.3
20260501161217 13 289 11.3 20.9 0.00 0.00 0.00 47 999.3
20260501160447 13 324 9.7 20.9 0.00 0.00 0.00 49 999.4
20260501155944 13 319 6.4 16.1 0.00 0.00 0.00 49 999.5
20260501155445 12 319 4.8 12.9 0.00 0.00 0.00 49 999.5
20260501154945 12 307 3.2 11.3 0.00 0.00 0.00 48 999.6
20260501154445 12 232 6.4 19.3 0.00 0.00 0.00 51 999.6
20260501154217 12 312 9.7 19.3 0.00 0.00 0.00 51 999.7
20260501153445 11 344 11.3 20.9 0.00 0.00 0.00 55 999.7